Location: Ay?beleni
(36.6500°N, 30.3000°E)
Time: 07:28:32
(UTC+00:00)

Cosmos 1953 Rocket - Pass Details

Date: 09 April 2020
Orbit: 604 x 635 km, 82.5° (Epoch: 31 May)

Event Time Altitude Azimuth Distance (km) Brightness Sun altitude
Rises 17:51:30 0° 350° (N) 2,935 7.5 -16.8°
Reaches altitude 10° 17:53:45 10° 348° (NNW) 2,025 6.7 -17.2°
Maximum altitude 17:58:13 68° 266° (W) 684 3.9 -18.0°
Drops below altitude 10° 18:02:39 10° 183° (S) 2,012 6.0 -18.8°
Enters shadow 18:02:44 10° 183° (S) 2,044 6.0 -18.8°
